Golden Princess — ZCDA9 — position and weather

sailwx.info

Track history (hours):
 
Tides and Currents Weather Stations Pressure Air Temp Water Temp Dewpoint Dewpoint Depression Visibility Wind Speed Wind Dir Waves Ship Positions

Golden Princess

Operator: Princess Cruises

Last reported at 2014-Jul-20 10:31 UTC. Time now 2014-Jul-22 18:58 UTC.
Position N 49°21' W 126°45'.

Length 289.6 m; beam 36 m; draft 8.5 m.

Type: Ship. MMSI: 310344000.

Date/timePositionNaut miles runAvg speedWind from/ knotsBaromVisibWave heightAir tempDewpointWater temp
2014-Jul-20 10:31N 49°21' W 126°45'2020.8
2014-Jul-20 09:33N 49°09' W 126°20'2120.7
2014-Jul-20 08:33N 48°57' W 125°54'2120.8
2014-Jul-20 07:33N 48°46' W 125°28'2221.3
2014-Jul-20 06:33N 48°36' W 124°59'2221.3
2014-Jul-20 05:30N 48°27' W 124°28'2020.6
2014-Jul-20 04:33N 48°19' W 124°01'2020.2
2014-Jul-20 03:33N 48°15' W 123°32'1313.3
2014-Jul-20 02:33N 48°11' W 123°13'1818.2
2014-Jul-20 01:33N 48°10' W 122°45'1919.0
2014-Jul-20 00:34N 47°55' W 122°29'1817.7
2014-Jul-19 23:33N 47°38' W 122°25'1 1.5
2014-Jul-19 22:34N 47°38' W 122°23'0 0.0
2014-Jul-19 21:33N 47°38' W 122°23'0 0.0
2014-Jul-19 20:33N 47°38' W 122°23'0 0.0
2014-Jul-19 19:32N 47°38' W 122°23'0 0.0
2014-Jul-19 18:32N 47°38' W 122°23'0 0.0
2014-Jul-19 17:31N 47°38' W 122°23'0 0.0
2014-Jul-19 16:31N 47°38' W 122°23'0 0.0
2014-Jul-19 15:34N 47°38' W 122°23'0 0.0
2014-Jul-19 14:33N 47°38' W 122°23'0 0.0
2014-Jul-19 13:33N 47°38' W 122°23'3 3.0
2014-Jul-19 12:33N 47°39' W 122°27'1313.0
2014-Jul-19 11:33N 47°52' W 122°29'1413.5
2014-Jul-19 10:33N 48°03' W 122°39'1212.2
2014-Jul-19 09:33N 48°11' W 122°53'1515.0
2014-Jul-19 08:33N 48°11' W 123°16'1010.2
2014-Jul-19 07:33N 48°15' W 123°29'9 9.0
2014-Jul-19 06:32N 48°24' W 123°26'0 0.1
2014-Jul-19 05:31N 48°24' W 123°26'0 0.1
2014-Jul-19 04:33N 48°24' W 123°26'0 0.0
2014-Jul-19 03:33N 48°24' W 123°26'0 0.1
2014-Jul-19 02:33N 48°24' W 123°26'1 1.2
2014-Jul-19 01:33N 48°24' W 123°24'5 4.7
2014-Jul-19 00:33N 48°19' W 123°25'1717.5
2014-Jul-18 23:34N 48°14' W 123°50'2121.1
2014-Jul-18 22:33N 48°21' W 124°19'2020.3
2014-Jul-18 21:34N 48°29' W 124°47'2019.8
2014-Jul-18 20:33N 48°32' W 125°17'2121.4
2014-Jul-18 19:33N 48°47' W 125°41'2121.2
2014-Jul-18 18:34N 49°00' W 126°06'2120.9
2014-Jul-18 17:34N 49°13' W 126°31'2221.4
2014-Jul-18 16:33N 49°27' W 126°56'31620.9
2014-Jul-18 01:26N 54°04' W 131°01'28511.9
2014-Jul-17 01:31N 58°10' W 135°19'2020.4
2014-Jul-17 00:33N 58°19' W 135°53'7 7.2
2014-Jul-16 23:34N 58°26' W 135°57'1 0.5
2014-Jul-16 22:33N 58°26' W 135°58'1010.2
2014-Jul-16 21:33N 58°36' W 136°04'1818.0
2014-Jul-16 20:34N 58°49' W 136°28'8 1.9
2014-Jul-16 16:08N 58°53' W 136°42'1017.9
2014-Jul-16 15:33N 58°47' W 136°25'1717.3
2014-Jul-16 14:33N 58°34' W 136°04'1110.9
2014-Jul-16 13:33N 58°24' W 135°57'9 9.4
2014-Jul-16 12:33N 58°18' W 135°44'1412.3
2014-Jul-16 11:25N 58°13' W 135°19'  
2014-Jul-13 17:15N 50°51' W 129°27'9820.9
2014-Jul-13 12:33N 49°46' W 127°33'2020.6
2014-Jul-13 11:34N 49°32' W 127°09'2020.4
2014-Jul-13 10:34N 49°19' W 126°46'2120.7
2014-Jul-13 09:34N 49°06' W 126°21'2120.8
2014-Jul-13 08:34N 48°53' W 125°55'2120.8
2014-Jul-13 07:34N 48°43' W 125°28'2121.2
2014-Jul-13 06:34N 48°35' W 124°58'2221.9
2014-Jul-13 05:34N 48°26' W 124°28'2221.7
2014-Jul-13 04:33N 48°18' W 123°58'2121.3
2014-Jul-13 03:33N 48°13' W 123°27'1413.6
2014-Jul-13 02:34N 48°13' W 123°06'1918.9
2014-Jul-13 01:33N 48°07' W 122°39'1716.9
2014-Jul-13 00:34N 47°52' W 122°27'1514.7
2014-Jul-12 23:33N 47°37' W 122°23'0 0.4
2014-Jul-12 22:34N 47°38' W 122°23'0 0.0
2014-Jul-12 21:33N 47°38' W 122°23'0 0.0
2014-Jul-12 20:33N 47°38' W 122°23'0 0.0
2014-Jul-12 19:32N 47°38' W 122°23'0 0.0
2014-Jul-12 18:32N 47°38' W 122°23'0 0.0
2014-Jul-12 17:33N 47°38' W 122°23'0 0.0
2014-Jul-12 16:31N 47°38' W 122°23'0 0.0
2014-Jul-12 15:33N 47°38' W 122°23'0 0.0
2014-Jul-12 14:30N 47°38' W 122°23'0 0.0
2014-Jul-12 13:33N 47°38' W 122°23'1 1.4
2014-Jul-12 12:33N 47°37' W 122°25'1312.8
2014-Jul-12 11:33N 47°50' W 122°28'1514.7
2014-Jul-12 10:32N 48°03' W 122°39'1515.2
2014-Jul-12 09:33N 48°12' W 122°57'1616.3
2014-Jul-12 08:33N 48°10' W 123°21'1111.4
2014-Jul-12 07:33N 48°22' W 123°25'4 3.5
2014-Jul-12 06:31N 48°25' W 123°23'0 0.0
2014-Jul-12 05:31N 48°25' W 123°23'0 0.0
2014-Jul-12 04:33N 48°25' W 123°23'0 0.0
2014-Jul-12 03:33N 48°25' W 123°23'0 0.0
2014-Jul-12 02:33N 48°25' W 123°23'0 0.0
2014-Jul-12 01:32N 48°25' W 123°23'3 2.7
2014-Jul-12 00:33N 48°23' W 123°25'1211.9
2014-Jul-11 23:34N 48°14' W 123°37'2120.8
2014-Jul-11 22:33N 48°17' W 124°08'2221.8
2014-Jul-11 21:34N 48°27' W 124°37'2121.5
2014-Jul-11 20:34N 48°29' W 125°09'2121.3
2014-Jul-11 19:34N 48°43' W 125°34'2120.7
2014-Jul-11 18:33N 48°55' W 125°59'2020.2
2014-Jul-11 17:34N 49°07' W 126°24'2120.8
2014-Jul-11 16:34N 49°20' W 126°49'2121.4
2014-Jul-11 15:33N 49°34' W 127°14'30121.0
2014-Jul-11 01:16N 53°60' W 131°01'1622.0
2014-Jul-11 00:32N 54°16' W 131°04'  
Track history (hours):
 
Tides and Currents Weather Stations Pressure Air Temp Water Temp Dewpoint Dewpoint Depression Visibility Wind Speed Wind Dir Waves Ship Positions

Golden Princess

Operator: Princess Cruises

Last reported at 2014-Jul-20 10:31 UTC. Time now 2014-Jul-22 18:58 UTC.
Position N 49°21' W 126°45'.

Length 289.6 m; beam 36 m; draft 8.5 m.

Type: Ship. MMSI: 310344000.

Date/timePositionNaut miles runAvg speedWind from/ knotsBaromVisibWave heightAir tempDewpointWater temp
2014-Jul-20 10:31N 49°21' W 126°45'2020.8
2014-Jul-20 09:33N 49°09' W 126°20'2120.7
2014-Jul-20 08:33N 48°57' W 125°54'2120.8
2014-Jul-20 07:33N 48°46' W 125°28'2221.3
2014-Jul-20 06:33N 48°36' W 124°59'2221.3
2014-Jul-20 05:30N 48°27' W 124°28'2020.6
2014-Jul-20 04:33N 48°19' W 124°01'2020.2
2014-Jul-20 03:33N 48°15' W 123°32'1313.3
2014-Jul-20 02:33N 48°11' W 123°13'1818.2
2014-Jul-20 01:33N 48°10' W 122°45'1919.0
2014-Jul-20 00:34N 47°55' W 122°29'1817.7
2014-Jul-19 23:33N 47°38' W 122°25'1 1.5
2014-Jul-19 22:34N 47°38' W 122°23'0 0.0
2014-Jul-19 21:33N 47°38' W 122°23'0 0.0
2014-Jul-19 20:33N 47°38' W 122°23'0 0.0
2014-Jul-19 19:32N 47°38' W 122°23'0 0.0
2014-Jul-19 18:32N 47°38' W 122°23'0 0.0
2014-Jul-19 17:31N 47°38' W 122°23'0 0.0
2014-Jul-19 16:31N 47°38' W 122°23'0 0.0
2014-Jul-19 15:34N 47°38' W 122°23'0 0.0
2014-Jul-19 14:33N 47°38' W 122°23'0 0.0
2014-Jul-19 13:33N 47°38' W 122°23'3 3.0
2014-Jul-19 12:33N 47°39' W 122°27'1313.0
2014-Jul-19 11:33N 47°52' W 122°29'1413.5
2014-Jul-19 10:33N 48°03' W 122°39'1212.2
2014-Jul-19 09:33N 48°11' W 122°53'1515.0
2014-Jul-19 08:33N 48°11' W 123°16'1010.2
2014-Jul-19 07:33N 48°15' W 123°29'9 9.0
2014-Jul-19 06:32N 48°24' W 123°26'0 0.1
2014-Jul-19 05:31N 48°24' W 123°26'0 0.1
2014-Jul-19 04:33N 48°24' W 123°26'0 0.0
2014-Jul-19 03:33N 48°24' W 123°26'0 0.1
2014-Jul-19 02:33N 48°24' W 123°26'1 1.2
2014-Jul-19 01:33N 48°24' W 123°24'5 4.7
2014-Jul-19 00:33N 48°19' W 123°25'1717.5
2014-Jul-18 23:34N 48°14' W 123°50'2121.1
2014-Jul-18 22:33N 48°21' W 124°19'2020.3
2014-Jul-18 21:34N 48°29' W 124°47'2019.8
2014-Jul-18 20:33N 48°32' W 125°17'2121.4
2014-Jul-18 19:33N 48°47' W 125°41'2121.2
2014-Jul-18 18:34N 49°00' W 126°06'2120.9
2014-Jul-18 17:34N 49°13' W 126°31'2221.4
2014-Jul-18 16:33N 49°27' W 126°56'31620.9
2014-Jul-18 01:26N 54°04' W 131°01'28511.9
2014-Jul-17 01:31N 58°10' W 135°19'2020.4
2014-Jul-17 00:33N 58°19' W 135°53'7 7.2
2014-Jul-16 23:34N 58°26' W 135°57'1 0.5
2014-Jul-16 22:33N 58°26' W 135°58'1010.2
2014-Jul-16 21:33N 58°36' W 136°04'1818.0
2014-Jul-16 20:34N 58°49' W 136°28'8 1.9
2014-Jul-16 16:08N 58°53' W 136°42'1017.9
2014-Jul-16 15:33N 58°47' W 136°25'1717.3
2014-Jul-16 14:33N 58°34' W 136°04'1110.9
2014-Jul-16 13:33N 58°24' W 135°57'9 9.4
2014-Jul-16 12:33N 58°18' W 135°44'1412.3
2014-Jul-16 11:25N 58°13' W 135°19'  
2014-Jul-13 17:15N 50°51' W 129°27'9820.9
2014-Jul-13 12:33N 49°46' W 127°33'2020.6
2014-Jul-13 11:34N 49°32' W 127°09'2020.4
2014-Jul-13 10:34N 49°19' W 126°46'2120.7
2014-Jul-13 09:34N 49°06' W 126°21'2120.8
2014-Jul-13 08:34N 48°53' W 125°55'2120.8
2014-Jul-13 07:34N 48°43' W 125°28'2121.2
2014-Jul-13 06:34N 48°35' W 124°58'2221.9
2014-Jul-13 05:34N 48°26' W 124°28'2221.7
2014-Jul-13 04:33N 48°18' W 123°58'2121.3
2014-Jul-13 03:33N 48°13' W 123°27'1413.6
2014-Jul-13 02:34N 48°13' W 123°06'1918.9
2014-Jul-13 01:33N 48°07' W 122°39'1716.9
2014-Jul-13 00:34N 47°52' W 122°27'1514.7
2014-Jul-12 23:33N 47°37' W 122°23'0 0.4
2014-Jul-12 22:34N 47°38' W 122°23'0 0.0
2014-Jul-12 21:33N 47°38' W 122°23'0 0.0
2014-Jul-12 20:33N 47°38' W 122°23'0 0.0
2014-Jul-12 19:32N 47°38' W 122°23'0 0.0
2014-Jul-12 18:32N 47°38' W 122°23'0 0.0
2014-Jul-12 17:33N 47°38' W 122°23'0 0.0
2014-Jul-12 16:31N 47°38' W 122°23'0 0.0
2014-Jul-12 15:33N 47°38' W 122°23'0 0.0
2014-Jul-12 14:30N 47°38' W 122°23'0 0.0
2014-Jul-12 13:33N 47°38' W 122°23'1 1.4
2014-Jul-12 12:33N 47°37' W 122°25'1312.8
2014-Jul-12 11:33N 47°50' W 122°28'1514.7
2014-Jul-12 10:32N 48°03' W 122°39'1515.2
2014-Jul-12 09:33N 48°12' W 122°57'1616.3
2014-Jul-12 08:33N 48°10' W 123°21'1111.4
2014-Jul-12 07:33N 48°22' W 123°25'4 3.5
2014-Jul-12 06:31N 48°25' W 123°23'0 0.0
2014-Jul-12 05:31N 48°25' W 123°23'0 0.0
2014-Jul-12 04:33N 48°25' W 123°23'0 0.0
2014-Jul-12 03:33N 48°25' W 123°23'0 0.0
2014-Jul-12 02:33N 48°25' W 123°23'0 0.0
2014-Jul-12 01:32N 48°25' W 123°23'3 2.7
2014-Jul-12 00:33N 48°23' W 123°25'1211.9
2014-Jul-11 23:34N 48°14' W 123°37'2120.8
2014-Jul-11 22:33N 48°17' W 124°08'2221.8
2014-Jul-11 21:34N 48°27' W 124°37'2121.5
2014-Jul-11 20:34N 48°29' W 125°09'2121.3
2014-Jul-11 19:34N 48°43' W 125°34'2120.7
2014-Jul-11 18:33N 48°55' W 125°59'2020.2
2014-Jul-11 17:34N 49°07' W 126°24'2120.8
2014-Jul-11 16:34N 49°20' W 126°49'2121.4
2014-Jul-11 15:33N 49°34' W 127°14'30121.0
2014-Jul-11 01:16N 53°60' W 131°01'1622.0
2014-Jul-11 00:32N 54°16' W 131°04'  

Dump ship's entire track history